Location: ????????
(55.4000°N, 39.1167°E)
Time: 07:25:09
(UTC+00:00)

Cosmos 2237 - Pass Details

Date: 19 May 2025
Orbit: 847 x 854 km, 70.8° (Epoch: 23 June)

Event Time Altitude Azimuth Distance (km) Brightness Sun altitude
Rises 19:22:55 0° 325° (NW) 3,424 9.5 -10.6°
Reaches altitude 10° 19:25:24 10° 328° (NNW) 2,485 8.2 -10.8°
Maximum altitude 19:31:06 71° 52° (NE) 899 4.4 -11.2°
Enters shadow 19:36:07 14° 136° (SE) 2,224 5.8 -11.5°
